Погода Карасу

Погода Карасу : погода сейчас, прогноз погоды и архив. Всё, что Вы хотите узнать о погоде Карасу!

Поиск расширенной информации на нашем сайте:

Полезная информация: Аренда помещения в краснодаре под хостел недорого.

Другие новости

Новости СМИ2

Главная страница сайта

Новости сайта

02.10.2013

Напоминаем, что на нашем новом сайте вы можете получить высокодетализированные прогнозы погоды по пунктам России, СНГ и мира (включающие важные для авиации метеовеличины, такие как направление и скорость ветра, видимость, явления погоды, количество и форма облачности, нижняя и верхняя граница облачности), а также ознакомиться с разнообразными материалами по авиационной метеорологии и подборкой полезных ссылок на эту тему.

Сайт Метеоцентр.Азия посвящён разработке технологий оптимизации авиаметеорологического обслуживания, включая проектирование и перспективное создание нескольких автоматизированных авиаметеорологических систем:
- система выпуска высокодетальных прогностических карт явлений погоды для нижнего воздушного пространства по России и ближнему зарубежью;
- система верификации прогнозов TAF (выпускаемых синоптиками официальных АМСГ РФ и ближнего зарубежья) и AUTOTAF (выпускаемых сайтом Метеоцентр.Азия) - выявление ошибок, онлайн-сопоставление с фактической погодой METAR, автоматическое внесение коррективов в прогнозы при резком отклонении фактической погоды от прогноза, подсчёт оправдываемости прогнозов по элементам и в целом;
- система обработки, анализа и отображения авиаметеорологической информации для применения провайдерами метеорологической информации.

Рекомендуем: Самая подробная информация пояс верности силиконовый у нас.

Погода Карасу - сегодня

Время (UTC), дата Ветер
(°,м/с) 
Видим.   Явления Облачность Т
(°С)
Тd
(°С)
f(%) Тe
(°С)
Pmin
(гПа)
dP
(гПа)
Po
(мм)
O2
(г/м3)
Тmin Tmax R s Состояние
почвы
21 16.02.17 тихо ()   н/о    9/9 600 м 
[Sc]
+2.9 +0.5 84 +3  1018.5  1.4  687  274           
00 17.02.17 тихо ()   н/о    9/9 600 м 
[Sc]
+2.9 +0.5 84 +3  1018.8  0.2  687  274           
03 17.02.17 110 (В) 20000 м    9/8 600 м верхняя 
[Sc|Ci fib]
+4.4 -0.4 71 +4  1021.2  2.2  690  273         
06 17.02.17 090 (В) 20000 м    8/4 600 м средняя, верхняя 
[Sc|Ac trans|Ci fib]
+8.9 +0.9 57 +10  1016.5  -2.9  687  268  +0.5         
09 17.02.17 200 (Ю) 20000 м    8/3 600 м средняя 
[Sc|Ac trans]
+11.9 +3.6 57 +13  1012.1  -2.8  685  264           
12 17.02.17 270 (З) 20000 м    9/9 600 м 
[Sc]
+9.1 +4.1 71 +9  1014.4  1.1  686  267           
15 17.02.17 140 (ЮВ) н/о    9/9 600 м 
[Sc]
+4.2 +1.1 80 +5  1017.8  1.4  687  272    +14.5       
18 17.02.17 140 (ЮВ) н/о    9/9 600 м 
[Sc]
+3.7 +1.5 86 +5  1014.4  -3.2  685  272    +14.5       
21 17.02.17 тихо ()   н/о    9/9 600 м 
[Sc]
+2.6 +0.8 88 +3  1012.8  -1.8  683  272           
00 18.02.17 180 (Ю) н/о    9/9 600 м 
[Sc]
+4.4 +1.6 82 +5  1009.9  -2  682  270           
03 18.02.17 080 (В) 0050 м  туман  ?/?  
+3.4 +2.9 97 +2  1013  2.4  684  271           
06 18.02.17 тихо ()   4000 м  дымка{туман}  9/9 600 м 
[Sc]
+3.4 +2.9 97 +3  1015  1.8  685  272  +2.5         
09 18.02.17 080 (В) 4000 м    9/9 600 м 
[Sc]
+3.8 +3.3 97 +5  1016.1  1.1  686  272           
12 18.02.17 080 (В) 4000 м  слаб. дождь  10/10 600 м 
[Frnb|Ns]
+3.4 +2.9 97 +3  1017.2  0.9  687  273           
18 18.02.17 090 (В) н/о  снег{дождь}  10/10 600 м 
[Frnb|Ns]
-1 -1.7 95 1025.4  2.3  691  279    +4.5     
21 18.02.17 090 (В) н/о  слаб. снег  10/10 600 м 
[Frnb|Ns]
-1 -1.7 95 1029.8  3.9  694  281           
00 19.02.17 090 (В) н/о  снег  10/10 600 м 
[Frnb|Ns]
-3 -4 93 -3  1032.5  1.7  695  284           
03 19.02.17 090 (В) 4000 м  снег  10/10 600 м 
[Frnb|Ns]
-3 -4 93 -4  1036.3  3.4  698  285      19  20   
06 19.02.17 340 (С) 4000 м  слаб. снег  10/10 600 м 
[Frnb|Ns]
-2 -2.9 94 -3  1038.4  2.2  699  284  -4.5    19     
09 19.02.17 020 (С) 2000 м  снег  10/10 600 м 
[Frnb|Ns]
-2.1 -3.6 89 -2  1039.8  1.2  700  285           
12 19.02.17 тихо ()   20000 м  {снег}  9/6 600 м верхняя 
[Sc|Ci fib]
-2.8 -4.8 86 -3  1041.5  1.3  701  286           
18 19.02.17 090 (В) н/о  {снег}  3/3 600 м 
[Sc]
-8.6 -10.5 86 -10  1044.7  -0.2  702  293    -1     
21 19.02.17 090 (В) н/о    ясно 
-11.3 -13.7 82 -11  1045.1  -0.8  701  296           
00 20.02.17 тихо ()   н/о    ясно 
-12.3 -14.8 82 -12  1044.4  -0.9  700  297           
06 20.02.17 тихо ()   20000 м    ясно 
-1.4 -2.2 94 -1  1039.7  0.1  700  284  -12.3    0.3     
Время (UTC), дата Ветер
(°,м/с) 
Видим.   Явления Облачность Т
(°С)
Тd
(°С)
f(%) Тe
(°С)
Pmin
(гПа)
dP
(гПа)
Po
(мм)
O2
(г/м3)
Тmin Tmax R s Состояние
почвы

Для получения пояснительной информации подведите курсор к названию столбца.

ПОГОДА Карасу - архив

Всё, что Вы хотите узнать о погоде Карасу - удобно и подробно!

Выберите нужную дату (начиная с 1 января 2015* года) и нажмите кнопку "Найти".
Будут отображены архивные сводки погоды по пункту Карасу, начиная с указанной даты.


Отображать данные в формате CSV (для использования в таблицах Excel)


Внимание! Наш архив погоды предназначен исключительно для личного некоммерческого использования в познавательных целях. Если Вам необходимы официальные справки о состоянии погоды (для производственных, юридических, коммерческих и т.п. целей), обращайтесь в органы Росгидромета.

*Примечание: данная дата относится к архиву по метеостанциям СССР (Россия, СНГ, Балтия).
Архив по метеостанциям Зарубежной Европы и Азии (кроме Китая) хранится 10 дней, по другим регионам земного шара (Китай, Африка, Америка, Австралия, Океания) - 1 день.

Карасу - район местоположения метеостанции


Название, широта, долгота, высота метеостанции:
Карасу 40.7°ш. 72.9°д. 865 м над ур. моря [Кыргызстан]

Дополнительная информация

В oтличие oт бoльшинства пoгoдных сайтoв мы публикуем пoдрoбную метеoинфoрмацию в детальнoм прoфессиoнальнoм фoрмате.

Характеристики температуры и влажнoсти вoздуха измеряются на высoте 2 м в тени вдали oт зданий и деревьев.
Скoрoсть ветра измеряется на высoте 10 м (на урoвне рoста челoвека скoрoсть ветра ниже в 1.5-2 раза). Если метеoстанция нахoдится в гoрoде или в лесу, тo скoрoсть ветра занижена на 2-4 м/с пo сравнению с oткрытым местoм. Скoрoсть ветра над акватoриями крупных рек и oзёр, а также на вершинах хoлмoв на 2-5 м/с выше, чем в oбычных услoвиях.
Атмoсфернoе давление в разных тoчках местнoсти мoжет значительнo oтличаться oт давления на метеoстанции, в зависимoсти oт услoвий рельефа (при пoдъёме на 10 м давление пoнижается примернo на 1 мм рт.ст.).